Weather History for Gunnison, CO

Change the Weather History Date:

Monday, May 28, 2012

  Actual Average Record
Temperature  
Mean Temperature 44 °F -  
Max Temperature 64 °F 68 °F 82 °F (2003)
Min Temperature 23 °F 34 °F 23 °F (2012)
Degree Days  
Heating Degree Days 22    
Moisture  
Dew Point 14 °F    
Average Humidity 31    
Maximum Humidity 59    
Minimum Humidity 13    
Precipitation  
Precipitation 0.00 in - - ()
Sea Level Pressure  
Sea Level Pressure 30.21 in    
Wind  
Wind Speed 5 mph (West)    
Max Wind Speed 20 mph    
Max Gust Speed 29 mph    
Visibility 10 miles    
Events      
Averages and records for this station are not official NWS values.
T = Trace of Precipitation, MM = Missing Value Source: NWS Daily Summary

Daily Weather History Graph

Daily Weather History Graph

Search for Another Location

Airport:

Trip Planner

Search our weather history database for the weather conditions in past years. The results will help you decide how hot, cold, wet, or windy it might be!

Date:

Astronomy

May. 28, 2012 Rise Set
Actual Time 5:46 AM MDT 8:23 PM MDT
Civil Twilight 5:15 AM MDT 8:54 PM MDT
Nautical Twilight 4:37 AM MDT 9:33 PM MDT
Astronomical Twilight 3:54 AM MDT 10:16 PM MDT
Moon 12:56 PM MDT (5/28) 1:05 AM MDT (5/28)
Length of Visible Light 15h 38m
Length of Day
14h 36m
Waxing Crescent, 49% of the Moon is Illuminated
May 28
Waxing Crescent
May 28
First Quarter
Jun 4
Full
Jun 11
Last Quarter
Jun 19
New

Hourly Weather History & Observations

Time (MDT) Temp. Windchill Dew Point Humidity Pressure Visibility Wind Dir Wind Speed Gust Speed Precip Events Conditions
12:15 AM 35.6 °F 31.7 °F 14.0 °F 41% 30.20 in 10.0 mi NNW 4.6 mph - N/A   Clear
12:35 AM 33.8 °F - 12.2 °F 41% 30.20 in 10.0 mi Calm Calm - N/A   Clear
12:55 AM 33.8 °F 29.6 °F 15.8 °F 48% 30.20 in 10.0 mi North 4.6 mph - N/A   Clear
1:15 AM 33.8 °F 30.8 °F 15.8 °F 48% 30.19 in 10.0 mi NNW 3.5 mph - N/A   Clear
1:55 AM 30.2 °F - 12.2 °F 47% 30.20 in 10.0 mi Calm Calm - N/A   Clear
2:15 AM 30.2 °F - 14.0 °F 51% 30.20 in 10.0 mi Calm Calm - N/A   Clear
2:55 AM 30.2 °F - 10.4 °F 44% 30.20 in 10.0 mi Calm Calm - N/A   Clear
3:15 AM 26.6 °F 21.2 °F 14.0 °F 59% 30.20 in 10.0 mi ENE 4.6 mph - N/A   Clear
3:35 AM 26.6 °F 22.6 °F 12.2 °F 55% 30.21 in 10.0 mi East 3.5 mph - N/A   Clear
3:55 AM 26.6 °F - 14.0 °F 59% 30.21 in 10.0 mi Calm Calm - N/A   Clear
4:15 AM 26.6 °F - 14.0 °F 59% 30.21 in 10.0 mi Calm Calm - N/A   Clear
4:35 AM 26.6 °F 22.6 °F 12.2 °F 55% 30.21 in 10.0 mi North 3.5 mph - N/A   Clear
4:55 AM 26.6 °F - 10.4 °F 51% 30.22 in 10.0 mi Calm Calm - N/A   Clear
5:15 AM 26.6 °F - 10.4 °F 51% 30.23 in 10.0 mi Calm Calm - N/A   Clear
5:35 AM 23.0 °F - 10.4 °F 59% 30.23 in 10.0 mi Calm Calm - N/A   Clear
5:55 AM 24.8 °F - 12.2 °F 59% 30.24 in 10.0 mi Calm Calm - N/A   Clear
6:15 AM 24.8 °F - 10.4 °F 54% 30.24 in 10.0 mi Calm Calm - N/A   Clear
6:35 AM 26.6 °F 21.2 °F 10.4 °F 51% 30.25 in 10.0 mi ENE 4.6 mph - N/A   Clear
6:55 AM 26.6 °F - 12.2 °F 55% 30.25 in 10.0 mi Calm Calm - N/A   Clear
7:15 AM 28.4 °F - 10.4 °F 47% 30.25 in 10.0 mi Calm Calm - N/A   Clear
7:35 AM 30.2 °F - 12.2 °F 47% 30.25 in 10.0 mi Calm Calm - N/A   Clear
7:55 AM 32.0 °F - 12.2 °F 44% 30.25 in 10.0 mi Calm Calm - N/A   Clear
8:15 AM 33.8 °F - 12.2 °F 41% 30.25 in 10.0 mi Calm Calm - N/A   Clear
8:35 AM 37.4 °F - 15.8 °F 41% 30.25 in 10.0 mi Calm Calm - N/A   Clear
8:55 AM 39.2 °F - 17.6 °F 42% 30.25 in 10.0 mi Calm Calm - N/A   Clear
9:15 AM 42.8 °F - 15.8 °F 34% 30.25 in 10.0 mi Calm Calm - N/A   Clear
9:35 AM 44.6 °F 40.7 °F 14.0 °F 29% 30.24 in 10.0 mi West 6.9 mph - N/A   Clear
9:55 AM 46.4 °F 44.3 °F 3.2 °F 17% 30.24 in 10.0 mi NW 4.6 mph - N/A   Clear
10:15 AM 48.2 °F - 10.4 °F 22% 30.23 in 10.0 mi WNW 4.6 mph - N/A   Clear
10:35 AM 51.8 °F - 14.0 °F 22% 30.22 in 10.0 mi WSW 12.7 mph 17.3 mph N/A   Clear
10:55 AM 53.6 °F - 15.8 °F 22% 30.21 in 10.0 mi WSW 13.8 mph 20.7 mph N/A   Clear
11:15 AM 55.4 °F - 12.2 °F 18% 30.21 in 10.0 mi SW 16.1 mph 20.7 mph N/A   Clear
11:35 AM 55.4 °F - 12.2 °F 18% 30.20 in 10.0 mi SSW 17.3 mph 26.5 mph N/A   Clear
11:55 AM 55.4 °F - 12.2 °F 18% 30.20 in 10.0 mi SW 15.0 mph 23.0 mph N/A   Clear
12:15 PM 57.2 °F - 14.0 °F 18% 30.19 in 10.0 mi WSW 18.4 mph 26.5 mph N/A   Clear
12:35 PM 57.2 °F - 12.2 °F 17% 30.19 in 10.0 mi SW 15.0 mph 25.3 mph N/A   Clear
12:55 PM 59.0 °F - 10.4 °F 15% 30.18 in 10.0 mi WSW 16.1 mph 25.3 mph N/A   Clear
1:15 PM 60.8 °F - 10.4 °F 14% 30.18 in 10.0 mi WSW 18.4 mph 24.2 mph N/A   Clear
1:35 PM 60.8 °F - 10.4 °F 14% 30.18 in 10.0 mi WSW 15.0 mph 23.0 mph N/A   Clear
1:55 PM 60.8 °F - 10.4 °F 14% 30.18 in 10.0 mi SW 9.2 mph 18.4 mph N/A   Clear
2:15 PM 62.6 °F - 15.8 °F 16% 30.18 in 10.0 mi West 17.3 mph 25.3 mph N/A   Clear
2:35 PM 62.6 °F - 15.8 °F 16% 30.17 in 10.0 mi West 18.4 mph 23.0 mph N/A   Clear
2:55 PM 64.4 °F - 12.2 °F 13% 30.17 in 10.0 mi West 13.8 mph 24.2 mph N/A   Clear
3:15 PM 62.6 °F - 14.0 °F 15% 30.17 in 10.0 mi WSW 13.8 mph 23.0 mph N/A   Clear
3:35 PM 64.4 °F - 12.2 °F 13% 30.17 in 10.0 mi West 11.5 mph 28.8 mph N/A   Clear
3:55 PM 64.4 °F - 14.0 °F 14% 30.16 in 10.0 mi WNW 11.5 mph 20.7 mph N/A   Clear
4:15 PM 64.4 °F - 12.2 °F 13% 30.16 in 10.0 mi SW 9.2 mph 23.0 mph N/A   Clear
4:35 PM 64.4 °F - 12.2 °F 13% 30.16 in 10.0 mi WSW 11.5 mph 19.6 mph N/A   Clear
4:55 PM 64.4 °F - 12.2 °F 13% 30.17 in 10.0 mi West 15.0 mph 23.0 mph N/A   Clear
5:15 PM 64.4 °F - 12.2 °F 13% 30.17 in 10.0 mi West 12.7 mph 19.6 mph N/A   Clear
5:35 PM 64.4 °F - 12.2 °F 13% 30.17 in 10.0 mi WSW 16.1 mph 24.2 mph N/A   Clear
5:55 PM 62.6 °F - 12.2 °F 14% 30.17 in 10.0 mi West 19.6 mph 24.2 mph N/A   Clear
6:15 PM 62.6 °F - 14.0 °F 15% 30.17 in 10.0 mi WSW 11.5 mph 18.4 mph N/A   Clear
6:35 PM 62.6 °F - 14.0 °F 15% 30.17 in 10.0 mi WSW 12.7 mph 16.1 mph N/A   Clear
6:55 PM 62.6 °F - 15.8 °F 16% 30.18 in 10.0 mi WSW 16.1 mph 20.7 mph N/A   Clear
7:15 PM 62.6 °F - 15.8 °F 16% 30.19 in 10.0 mi West 11.5 mph 19.6 mph N/A   Clear
7:35 PM 62.6 °F - 15.8 °F 16% 30.20 in 10.0 mi West 5.8 mph - N/A   Clear
7:55 PM 60.8 °F - 17.6 °F 19% 30.20 in 10.0 mi WNW 8.1 mph - N/A   Clear
8:15 PM 59.0 °F - 15.8 °F 19% 30.21 in 10.0 mi WNW 8.1 mph - N/A   Clear
8:35 PM 57.2 °F - 15.8 °F 20% 30.22 in 10.0 mi WNW 8.1 mph - N/A   Clear
8:55 PM 55.4 °F - 15.8 °F 21% 30.22 in 10.0 mi Calm Calm - N/A   Clear
9:15 PM 53.6 °F - 17.6 °F 24% 30.23 in 10.0 mi North 5.8 mph - N/A   Clear
9:35 PM 50.0 °F - 15.8 °F 26% 30.24 in 10.0 mi NNW 8.1 mph - N/A   Clear
9:55 PM 50.0 °F - 17.6 °F 28% 30.25 in 10.0 mi NNW 5.8 mph - N/A   Clear
10:15 PM 48.2 °F - 17.6 °F 30% 30.25 in 10.0 mi NW 4.6 mph - N/A   Clear
10:35 PM 46.4 °F - 17.6 °F 32% 30.25 in 10.0 mi Calm Calm - N/A   Clear
10:55 PM 46.4 °F 44.3 °F 17.6 °F 32% 30.25 in 10.0 mi North 4.6 mph - N/A   Clear
11:15 PM 46.4 °F 43.5 °F 17.6 °F 32% 30.25 in 10.0 mi North 5.8 mph - N/A   Clear
11:35 PM 44.6 °F 43.1 °F 19.4 °F 37% 30.26 in 10.0 mi NNW 3.5 mph - N/A   Clear
11:55 PM 42.8 °F 39.3 °F 19.4 °F 39% 30.26 in 10.0 mi NE 5.8 mph - N/A   Clear